Location: Bolton
(53.5720°N, 2.4300°W)
Time: 02:01:31
(UTC+01:00)

N. Korean satellite - Visible Passes

Search period start: 21 September 2020 00:00
Search period end: 01 October 2020 00:00
Orbit: 455 x 503 km, 97.2° (Epoch: 20 September)

Date Brightness Start Highest point End Pass type
(mag) Time Alt. Az. Time Alt. Az. Time Alt. Az.
22 Sep 9.4 06:03:49 10° NE 06:06:50 23° E 06:09:48 10° SSE visible
23 Sep 10.0 05:38:44 10° ENE 05:40:34 13° E 05:42:24 10° ESE visible
25 Sep 8.7 06:18:54 10° NNE 06:22:15 32° E 06:25:33 10° SSE visible
26 Sep 9.7 05:53:25 10° NE 05:56:02 18° E 05:58:38 10° SE visible
27 Sep 10.4 05:29:11 10° ENE 05:29:43 10° E 05:30:16 10° E visible
29 Sep 9.2 06:08:22 10° NE 06:11:28 25° E 06:14:30 10° SSE visible
30 Sep 9.9 05:43:07 10° NE 05:45:12 14° E 05:47:14 10° ESE visible
